Change the Weather History Date:

Friday, December 27, 2013

  Actual Average Record
Temperature  
Mean Temperature -16 °F -  
Max Temperature -11 °F 8 °F 82 °F (1998)
Min Temperature -20 °F -6 °F -52 °F (1954)
Degree Days  
Heating Degree Days 80    
Moisture  
Dew Point -20 °F    
Average Humidity 76    
Maximum Humidity 82    
Minimum Humidity 67    
Precipitation  
Precipitation 0.00 in - - ()
Sea Level Pressure  
Sea Level Pressure 30.25 in    
Wind  
Wind Speed 0 mph (WNW)    
Max Wind Speed 4 mph    
Max Gust Speed -    
Visibility 8 miles    
Events Snow    
Averages and records for this station are not official NWS values.
T = Trace of Precipitation, MM = Missing Value Source: NWS Daily Summary

Daily Weather History Graph

Daily Weather History Graph

Search for Another Location

Airport or City:

Trip Planner

Search our weather history database for the weather conditions in past years. The results will help you decide how hot, cold, wet, or windy it might be!

Date:

Astronomy

Dec. 27, 2013 Rise Set
Actual Time 10:08 AM AKST 3:17 PM AKST
Civil Twilight 9:02 AM AKST 4:24 PM AKST
Nautical Twilight 8:00 AM AKST 5:26 PM AKST
Astronomical Twilight 7:04 AM AKST 6:21 PM AKST
Moon 3:40 AM AKST (12/27) 12:38 PM AKST (12/27)
Length of Visible Light 7h 21m
Length of Day
5h 09m
Waning Crescent, 27% of the Moon is Illuminated
Dec 27
Waning Crescent
Jan 1
New
Jan 7
First Quarter
Jan 15
Full
Jan 23
Last Quarter

Hourly Weather History & Observations

Time (AKST) Temp. Windchill Dew Point Humidity Pressure Visibility Wind Dir Wind Speed Gust Speed Precip Events Conditions
12:53 AM -15.0 °F - -20.0 °F 78% 30.11 in 10.0 mi Calm Calm - N/A   Overcast
1:53 AM -15.0 °F - -20.0 °F 78% 30.12 in 9.0 mi Calm Calm - N/A   Overcast
3:53 AM -16.1 °F - -20.9 °F 79% 30.14 in 10.0 mi Calm Calm - N/A   Overcast
4:53 AM -16.1 °F - -22.0 °F 74% 30.15 in 9.0 mi Calm Calm - N/A   Overcast
5:53 AM -15.0 °F - -20.0 °F 78% 30.17 in 9.0 mi Calm Calm - N/A   Overcast
6:53 AM -14.1 °F - -20.0 °F 75% 30.18 in 9.0 mi Calm Calm - N/A   Overcast
7:53 AM -14.1 °F - -18.9 °F 79% 30.19 in 9.0 mi Calm Calm - N/A   Overcast
8:53 AM -16.1 °F - -20.9 °F 79% 30.22 in 10.0 mi Calm Calm - N/A   Mostly Cloudy
9:53 AM -18.9 °F - -25.1 °F 74% 30.24 in 9.0 mi Calm Calm - N/A   Partly Cloudy
10:53 AM -18.9 °F - -24.0 °F 78% 30.26 in 9.0 mi Calm Calm - N/A   Overcast
11:53 AM -18.9 °F -29.5 °F -25.1 °F 74% 30.28 in 9.0 mi WNW 3.5 mph - N/A   Mostly Cloudy
12:53 PM -15.0 °F - -20.9 °F 75% 30.30 in 9.0 mi Calm Calm - N/A   Overcast
1:53 PM -16.1 °F - -20.9 °F 79% 30.31 in 9.0 mi Calm Calm - N/A   Overcast
2:53 PM -17.0 °F - -20.9 °F 82% 30.33 in 9.0 mi Calm Calm - N/A   Overcast
3:53 PM -18.9 °F - -25.1 °F 74% 30.35 in 10.0 mi Calm Calm - N/A   Clear
4:53 PM -18.9 °F -29.5 °F -25.1 °F 74% 30.36 in 10.0 mi NW 3.5 mph - N/A   Clear
5:53 PM -17.0 °F -27.2 °F -22.0 °F 78% 30.36 in 10.0 mi NW 3.5 mph - N/A   Partly Cloudy
6:53 PM -14.1 °F - -18.9 °F 79% 30.36 in 10.0 mi Calm Calm - N/A   Partly Cloudy
7:53 PM -13.0 °F - -18.0 °F 78% 30.37 in 6.0 mi Calm Calm - 0.00 in Snow Light Snow
8:30 PM -14.1 °F - -18.9 °F 79% 30.13 in 6.0 mi Calm Calm - 0.00 in   Haze
8:42 PM -14.1 °F - -20.0 °F 75% 30.13 in 9.0 mi Calm Calm - 0.00 in   Scattered Clouds
8:53 PM -14.1 °F - -18.9 °F 79% 30.38 in 10.0 mi Calm Calm - 0.00 in   Clear
9:53 PM -14.1 °F - -18.9 °F 79% 30.39 in 8.0 mi Calm Calm - N/A   Overcast
10:11 PM -14.1 °F - -18.0 °F 82% 30.14 in 6.0 mi Calm Calm - N/A   Overcast
10:20 PM -14.1 °F - -18.0 °F 82% 30.15 in 6.0 mi Calm Calm - N/A   Overcast
10:53 PM -13.0 °F - -18.0 °F 78% 30.40 in 6.0 mi Calm Calm - 0.00 in Snow Light Snow
11:35 PM -11.0 °F - -17.0 °F 75% 30.14 in 2.5 mi Calm Calm - 0.00 in Snow Light Snow
11:44 PM -11.0 °F - -17.0 °F 75% 30.14 in 3.0 mi Calm Calm - 0.00 in Snow Light Snow
11:53 PM -11.0 °F - -17.0 °F 75% 30.39 in 4.0 mi Calm Calm - 0.00 in Snow Light Snow